Погода в Вельске

Погода в Вельске : погода сейчас, прогноз погоды и архив. Всё, что Вы хотите узнать о погоде в Вельске!

Поиск расширенной информации на нашем сайте:

Другие новости

Новости СМИ2

Главная страница сайта

Новости сайта

03.07.2017

Напоминаем, что на нашем специализированном сайте Метеоцентр.Азия вы можете получить высокодетализированные автоматические прогнозы погоды по пунктам России, СНГ и мира в авиационном формате (включающие направление и скорость ветра, видимость, явления погоды, количество и форму облачности, нижнюю и верхнюю границу облачности).


Погода в Вельске - сегодня

Время (UTC), дата Ветер
(°,м/с) 
Видим.   Явления Облачность Т
(°С)
Тd
(°С)
f(%) Тe
(°С)
Pmin
(гПа)
dP
(гПа)
Po
(мм)
O2
(г/м3)
Тmin Tmax R s Состояние
почвы
03 20.10.17 310 (СЗ) 20000 м    10/10 570 м 
[Sc]
+0.5 -1.8 85 +1  1015.2  1.4  753  303  +0.2    0.5  <0.5  мокрый или
старый снег
50-90% 
06 20.10.17 310 (СЗ) 20000 м    9/6 600 м средняя 
[Sc|Ac trans]
+0.9 -1.4 85 +2  1016.4  1.2  754  303           
09 20.10.17 300 (СЗ) 20000 м    10/10 480 м 
[Sc]
+2.2 -1.8 75 +3  1017.5  1.1  755  302           
12 20.10.17 тихо ()   20000 м  в посл. час крупа  9/5 300 м кучево-дожд., средняя, верхняя 
[Cb cap|Ac trans|Ci fib]
+1.8 -1.6 78 +2  1017.6  0.1  755  302           
15 20.10.17 290 (З) 20000 м  {ливн. осадки}  6/0 верхняя 
[Ci fib]
-0.3 -3 82 1018.1  0.4  755  305    +2.8  0.1     
18 20.10.17 тихо ()   20000 м  {ливн. осадки}  8/0 средняя, верхняя 
[Ac trans|Ci fib]
-1.3 -3.3 86 -1  1018.3  0.1  755  306           
21 20.10.17 290 (З) 20000 м    4/0 средняя 
[Ac trans]
-1.7 -3.4 88 -1  1018  -0.2  755  306           
00 21.10.17 280 (З) 20000 м    6/3 600 м средняя 
[Sc|Ac trans]
-1.2 -3.5 84 -1  1017.6  -0.4  755  306           
03 21.10.17 тихо ()   20000 м  слаб. ливневой снег  10/10 480 м кучево-дожд. 
[Cb cap]
-1.5 -3.2 88 -2  1017.4  -0.2  755  306  -1.8    0.2  <0.5  сухой снег
50-90% 
06 21.10.17 300 (СЗ) 20000 м  в посл. час ливневой снег  8/8 500 м кучево-дожд. 
[Cb cap]
-0.8 -3.6 81 1017  -0.3  754  305           
09 21.10.17 280 (З) 20000 м  в посл. час ливневой снег  8/8 540 м кучево-дожд. 
[Cb cap]
+0.8 -2.5 79 1016.4  -0.6  754  303           
12 21.10.17 270 (З) 20000 м  {ливн. осадки}  5/5 600 м 
[Cu Sc]
+1 -3.9 70 1015.1  -1.3  753  303           
15 21.10.17 300 (СЗ) 20000 м    9/9 500 м 
[Sc]
+0.1 -4.1 73 +1  1014.2  -0.9  752  303    +1.4  0.0     
18 21.10.17 270 (З) 20000 м    9/9 500 м 
[Sc]
-0.4 -4.5 74 -1  1012.9  -1.3  751  304           
21 21.10.17 280 (З) 20000 м  в посл. час ливневой снег  9/8 540 м кучево-дожд., средняя 
[Cb cap|Ac trans]
-0.9 -3.8 81 -2  1011.7  -1.1  750  304           
00 22.10.17 280 (З) 10 км  слаб. снег{ливн. осадки}  10/10 330 м 
[Frnb|Ns]
-1.4 -3.4 86 -1  1011.1  -0.7  750  304           
03 22.10.17 270 (З) 20000 м  {ливн. осадки}  3/3 300 м 
[Sc]
-2.1 -4.2 86 -2  1010.7  -0.4  749  305  -2.1    0.8  равномерный
сухой снег
100% 
06 22.10.17 270 (З) 10 км  слаб. ливневой снег  9/8 630 м кучево-дожд., средняя 
[Cb cap|Ac trans]
-1.2 -3.5 84 -2  1010.5  -0.1  749  304           
09 22.10.17 290 (З) 20000 м  в посл. час ливневой снег  9/8 630 м кучево-дожд., средняя 
[Cb cap|Ac trans]
+0.1 -2.6 82 +1  1010.8  0.4  750  302           
12 22.10.17 тихо ()   20000 м  {ливн. осадки}  8/8 660 м кучево-дожд. 
[Cb cap]
-0.1 -2.2 86 -0  1011.4  0.5  750  303           
15 22.10.17 тихо ()   20000 м  в посл. час ливневой снег  5/5 600 м 
[Sc]
-1.4 -3.1 88 -1  1012.7  1.2  751  305    +1.1  0.4     
18 22.10.17 тихо ()   20000 м  {ливн. осадки}  10/10 900 м 
[Sc]
-1.4 -2.5 92 -1  1013.8  1.1  752  305           
21 22.10.17 тихо ()   20000 м  слаб. ливневой снег  9/9 500 м кучево-дожд. 
[Cb cap]
-1.4 -2.8 90 -1  1015  1.2  753  305           
00 23.10.17 тихо ()   10 км  слаб. ливневой снег  10/10 330 м кучево-дожд. 
[Cb cap]
-1.5 -2.6 92 -2  1016.2  1.1  754  306           
03 23.10.17 тихо ()   20000 м  {ливн. осадки}  8/8 700 м 
[Sc]
-2 -3.2 91 -2  1017.6  1.4  755  307  -2.1    0.2  равномерный
сухой снег
100% 
Время (UTC), дата Ветер
(°,м/с) 
Видим.   Явления Облачность Т
(°С)
Тd
(°С)
f(%) Тe
(°С)
Pmin
(гПа)
dP
(гПа)
Po
(мм)
O2
(г/м3)
Тmin Tmax R s Состояние
почвы

Для получения пояснительной информации подведите курсор к названию столбца.

ПОГОДА в Вельске - архив

Всё, что Вы хотите узнать о погоде в Вельске - удобно и подробно!

Выберите нужную дату (начиная с 1 января 2015* года) и нажмите кнопку "Найти".
Будут отображены архивные сводки погоды по пункту Вельск, начиная с указанной даты.


Отображать данные в формате CSV (для использования в таблицах Excel)


Внимание! Наш архив погоды предназначен исключительно для личного некоммерческого использования в познавательных целях. Если Вам необходимы официальные справки о состоянии погоды (для производственных, юридических, коммерческих и т.п. целей), обращайтесь в органы Росгидромета.

*Примечание: данная дата относится к архиву по метеостанциям СССР (Россия, СНГ, Балтия).
Архив по метеостанциям Зарубежной Европы и Азии (кроме Китая) хранится 10 дней, по другим регионам земного шара (Китай, Африка, Америка, Австралия, Океания) - 1 день.

Вельск - район местоположения метеостанции


Название, широта, долгота, высота метеостанции:
Вельск 61.1°ш. 42.1°д. 91 м над ур. моря [Российская Федерация]

Дополнительная информация

В oтличие oт бoльшинства пoгoдных сайтoв мы публикуем пoдрoбную метеoинфoрмацию в детальнoм прoфессиoнальнoм фoрмате.

Характеристики температуры и влажнoсти вoздуха измеряются на высoте 2 м в тени вдали oт зданий и деревьев.
Скoрoсть ветра измеряется на высoте 10 м (на урoвне рoста челoвека скoрoсть ветра ниже в 1.5-2 раза). Если метеoстанция нахoдится в гoрoде или в лесу, тo скoрoсть ветра занижена на 2-4 м/с пo сравнению с oткрытым местoм. Скoрoсть ветра над акватoриями крупных рек и oзёр, а также на вершинах хoлмoв на 2-5 м/с выше, чем в oбычных услoвиях.
Атмoсфернoе давление в разных тoчках местнoсти мoжет значительнo oтличаться oт давления на метеoстанции, в зависимoсти oт услoвий рельефа (при пoдъёме на 10 м давление пoнижается примернo на 1 мм рт.ст.).